AirNav   Pilot Hours Calculator
 
 466 users online  

OG34 Meyer Riverside Airpark
Tigard, Oregon, USA

GOING TO TIGARD?


FAA INFORMATION EFFECTIVE 18 JULY 2019

Location

FAA Identifier: OG34
Lat/Long: 45-23-59.4250N / 122-49-44.3540W
45-23.990417N / 122-49.739233W
45.3998403 / -122.8289872
(estimated)
Elevation: 252 ft. / 77 m (estimated)
Variation: 19E (1985)
From city: 3 miles SW of TIGARD, OR
Time zone: UTC -7 (UTC -8 during Standard Time)
Zip code: 97224

Airport Operations

Airport use: Private use. Permission required prior to landing
Activation date: 05/1956
Control tower: no
ARTCC: SEATTLE CENTER
FSS: MC MINNVILLE FLIGHT SERVICE STATION
Attendance: ON CALL ON CALL
Wind indicator: yes
Segmented circle: no

Airport Communications

WX ASOS at UAO (9 nm S): PHONE 503-678-3011
WX ASOS at HIO (10 nm NW): PHONE 503-640-2984
WX ASOS at PDX (15 nm NE): PHONE (503) 493-7687
WX ASOS at VUO (15 nm NE): 135.125 (360-696-1280)
WX ASOS at MMV (18 nm SW): 135.675 (503-434-9153)

Nearby radio navigation aids

VOR radial/distance  VOR name  Freq  Var
UBGr045/6.9NEWBERG VOR/DME117.4021E
BTGr185/23.1BATTLE GROUND VORTAC116.6021E

 
NDB name  Hdg/Dist  Freq  Var  ID
BANKS131/16.635616EPND .--. -. -..

Airport Services

Airframe service: NONE
Powerplant service: NONE

Runway Information

Runway 16/34

Dimensions: 1585 x 100 ft. / 483 x 30 m
Surface: turf
RUNWAY 16  RUNWAY 34
Traffic pattern: leftleft
Obstructions: plines, 10 ft. from runwaytrees, 100 ft. from runway

Airport Ownership and Management from official FAA records

Ownership: Privately-owned
Owner: JAMES MEYER
14730 SW BEEF BEND RD
TIGARD, OR 97224
Phone 503-590-6903
Manager: JAMES MEYER
14730 SW BEEF BEND RD
TIGARD, OR 97224
Phone 503-590-6903

Airport Operational Statistics

Aircraft based on the field: 2
Single engine airplanes: 1
Helicopters: 1
    

Additional Remarks

FOR CD CTC PORTLAND APCH AT 503-493-7545.

Instrument Procedures

There are no published instrument procedures at OG34.

Some nearby airports with instrument procedures:

KUAO - Aurora State Airport (9 nm S)
KHIO - Portland-Hillsboro Airport (10 nm NW)
KPDX - Portland International Airport (15 nm NE)
KVUO - Pearson Field Airport (15 nm NE)
KMMV - Mc Minnville Municipal Airport (18 nm SW)
 
Loc | Ops | Rwys | IFR | FBO | Links
Com | Nav | Svcs | Stats | Notes
Area around OG34 (Meyer Riverside Airpark)
 
Road maps at: MapQuest Bing Google
 
Aerial photo
WARNING: Photo may not be current or correct
Aerial photo of OG34 (Meyer Riverside Airpark)
Do you have a better or more recent aerial photo of Meyer Riverside Airpark that you would like to share? If so, please send us your photo.

 
Sectional chart

 
Airport distance calculator
Flying to Meyer Riverside Airpark? Find the distance to fly.

From to OG34

Sunrise and sunset
Times for 20-Jul-2019
 Local
(UTC-7)
 Zulu
(UTC)
Morning civil twilight05:0812:08
Sunrise05:4312:43
Sunset20:5203:52
Evening civil twilight21:2704:27

Current date and time
Zulu (UTC)  21-Jul-2019 05:56:09
Local (UTC-7)  20-Jul-2019 22:56:09
 
METAR
KUAO 
9nm S 
210453Z AUTO 31003KT 10SM CLR 24/09 A2993 RMK AO2 SLP131 T02440094
KHIO 
10nm NW 
210453Z AUTO 30008KT 10SM CLR 21/11 A2993 RMK AO2 SLP131 T02060106
KPDX 
15nm NE 
210453Z 29008KT 10SM FEW250 25/11 A2991 RMK AO2 SLP129 T02500106
KVUO 
15nm NE 
210453Z AUTO 32006KT 10SM CLR 24/10 A2991 RMK AO2 SLP128 T02440100
KMMV 
18nm SW 
210453Z AUTO 25008KT 10SM CLR 19/12 A2993 RMK AO2 SLP133 T01890122
KTTD 
20nm NE 
210453Z AUTO 25004KT 10SM CLR 23/12 A2990 RMK AO2 SLP126 T02330117
TAF
KUAO 
9nm S 
201723Z 2018/2118 36007KT P6SM SKC FM202000 01010G18KT P6SM SKC FM210500 VRB03KT P6SM SKC
KHIO 
10nm NW 
201723Z 2018/2118 VRB04KT P6SM SKC FM202000 02008G15KT P6SM FEW300 FM210400 VRB05KT P6SM SKC
KPDX 
15nm NE 
210250Z 2103/2124 33010KT P6SM SKC FM210600 32003KT P6SM SKC FM211900 34006KT P6SM SKC
KTTD 
20nm NE 
201723Z 2018/2118 VRB03KT P6SM SKC FM201900 27007KT P6SM FEW300 FM202200 35008G15KT P6SM FEW300 FM210400 09006KT P6SM SKC
NOTAMs
Click for the latest NOTAMs
NOTAMs are issued by the DoD/FAA and will open in a separate window not controlled by AirNav.

 

 
 

Would you like to see your business listed on this page?

 If your business provides an interesting product or service to pilots, flight crews, aircraft, or users of the Meyer Riverside Airpark, you should consider listing it here.  To start the listing process, click on the button below
 
Add a business
 

Other Pages about Meyer Riverside Airpark

Update a link
 
Copyright © AirNav, LLC. All rights reserved. Privacy Policy  Contact